Rock Springs, WY

5:48 PM MST on December 10, 2017 (GMT -0700)
Rock Springs-Sweetwater

Weather History for KRKS - March, 2014

Change the Weather History Date:

Saturday, March 1, 2014

  Actual Average Record
Temperature  
Mean Temperature 25 °F 28 °F  
Max Temperature 36 °F 38 °F 57 °F (1967)
Min Temperature 13 °F 19 °F -5 °F (1960)
Degree Days  
Heating Degree Days 40 37  
Month to date heating degree days 40 37  
Since 1 July heating degree days 5492 5889  
Cooling Degree Days 0 0  
Month to date cooling degree days 0 0  
Year to date cooling degree days 0 0  
Moisture  
Dew Point 21 °F    
Average Humidity 87    
Maximum Humidity 100    
Minimum Humidity 74    
Precipitation  
Precipitation 0.01 in 0.02 in 0.29 in (1964)
Month to date precipitation 0.01 0.02  
Year to date precipitation 0.16 0.95  
Sea Level Pressure  
Sea Level Pressure 29.68 in    
Wind  
Wind Speed 10 mph (NE)    
Max Wind Speed 23 mph    
Max Gust Speed 29 mph    
Visibility 8 miles    
Events Snow    
T = Trace of Precipitation, MM = Missing Value Source: NWS Daily Summary

Daily Weather History Graph

Daily Weather History Graph

Search for Another Location

Airport or City:

Trip Planner

Search our weather history database for the weather conditions in past years. The results will help you decide how hot, cold, wet, or windy it might be!

Date:

Astronomy

Mar. 01, 2014 Rise Set
Actual Time 6:50 AM MST 6:06 PM MST
Civil Twilight 6:23 AM MST 6:34 PM MST
Nautical Twilight 5:50 AM MST 7:06 PM MST
Astronomical Twilight 5:18 AM MST 7:39 PM MST
Moon 6:45 AM MST (3/1) 6:59 PM MST (3/1)
Length of Visible Light 12h 11m
Length of Day
11h 16m
New Moon, 0% of the Moon is Illuminated
Mar 1
New Moon
Mar 8
First Quarter
Mar 16
Full
Mar 23
Last Quarter
Mar 30
New

Hourly Weather History & Observations

Time (MST) Temp. Windchill Dew Point Humidity Pressure Visibility Wind Dir Wind Speed Gust Speed Precip Events Conditions
12:54 AM 34.0 °F 25.5 °F 30.0 °F 85% 29.53 in 9.0 mi SW 11.5 mph - 0.00 in Snow Light Snow
1:21 AM 34.0 °F 23.4 °F 30.9 °F 89% 29.59 in 3.0 mi WSW 17.3 mph - 0.01 in Snow Light Snow
1:23 AM 33.1 °F 22.6 °F 30.9 °F 92% 29.59 in 2.5 mi WSW 16.1 mph - 0.01 in Snow Light Snow
1:38 AM 33.1 °F 26.1 °F 30.9 °F 92% 29.57 in 3.0 mi WSW 8.1 mph - 0.01 in Snow Light Snow
1:54 AM 33.1 °F - 32.0 °F 96% 29.53 in 10.0 mi Calm Calm - 0.01 in   Mostly Cloudy
2:47 AM 34.0 °F 28.8 °F 30.0 °F 85% 29.57 in 10.0 mi SE 5.8 mph - N/A   Overcast
2:54 AM 35.1 °F 28.6 °F 30.0 °F 82% 29.50 in 10.0 mi SE 8.1 mph - N/A   Overcast
3:01 AM 35.1 °F 30.1 °F 30.0 °F 82% 29.56 in 10.0 mi SE 5.8 mph - N/A   Overcast
3:17 AM 35.1 °F 27.9 °F 30.0 °F 82% 29.56 in 10.0 mi SE 9.2 mph - N/A   Overcast
3:54 AM 34.0 °F 25.5 °F 30.0 °F 85% 29.49 in 10.0 mi SE 11.5 mph - N/A   Mostly Cloudy
4:25 AM 30.9 °F 23.5 °F 28.9 °F 92% 29.53 in 2.5 mi NNW 8.1 mph - N/A   Mostly Cloudy
4:30 AM 30.9 °F 23.5 °F 28.9 °F 92% 29.54 in 0.8 mi NNW 8.1 mph - N/A   Mostly Cloudy
4:42 AM 30.9 °F 23.5 °F 28.9 °F 92% 29.53 in 2.0 mi North 8.1 mph - N/A   Mostly Cloudy
4:49 AM 30.2 °F 24.3 °F 30.2 °F 100% 29.54 in 7.0 mi NNE 5.8 mph - N/A   Overcast
4:54 AM 30.9 °F 25.2 °F 30.0 °F 96% 29.50 in 10.0 mi North 5.8 mph - N/A   Overcast
5:54 AM 19.9 °F 4.3 °F 17.1 °F 89% 29.57 in 10.0 mi ENE 19.6 mph - N/A   Scattered Clouds
6:54 AM 16.0 °F 0.6 °F 12.9 °F 88% 29.63 in 10.0 mi NE 16.1 mph - N/A   Clear
7:54 AM 14.0 °F -1.4 °F 10.0 °F 84% 29.69 in 10.0 mi ENE 15.0 mph 24.2 mph N/A   Clear
8:27 AM 12.9 °F -3.9 °F 9.0 °F 84% 29.62 in 10.0 mi NE 17.3 mph 24.2 mph N/A   Scattered Clouds
8:54 AM 15.1 °F -1.1 °F 10.9 °F 84% 29.73 in 10.0 mi ENE 17.3 mph - N/A   Partly Cloudy
9:54 AM 16.0 °F -0.4 °F 10.9 °F 81% 29.74 in 10.0 mi NE 18.4 mph - N/A   Mostly Cloudy
10:54 AM 15.1 °F -0.1 °F 10.0 °F 80% 29.77 in 10.0 mi NE 15.0 mph - N/A   Overcast
11:54 AM 16.0 °F 2.3 °F 10.9 °F 81% 29.78 in 10.0 mi NE 12.7 mph - N/A   Overcast
12:54 PM 18.0 °F 4.2 °F 12.9 °F 81% 29.76 in 10.0 mi NE 13.8 mph - 0.00 in   Overcast
1:54 PM 19.9 °F 8.6 °F 14.0 °F 78% 29.74 in 10.0 mi NE 10.4 mph - 0.00 in   Overcast
2:54 PM 23.0 °F 10.6 °F 16.0 °F 74% 29.73 in 10.0 mi NE 13.8 mph - N/A   Mostly Cloudy
3:54 PM 23.0 °F 13.1 °F 17.1 °F 78% 29.73 in 7.0 mi ENE 9.2 mph - 0.00 in Snow Light Snow
4:54 PM 21.0 °F 14.6 °F 17.1 °F 85% 29.79 in 7.0 mi East 4.6 mph - 0.00 in Snow Light Snow
5:04 PM 24.1 °F 17.0 °F 19.0 °F 81% 29.70 in 2.5 mi ENE 5.8 mph - 0.00 in Snow Light Snow
5:13 PM 24.1 °F 18.2 °F 19.0 °F 81% 29.71 in 3.0 mi NE 4.6 mph - 0.00 in Snow Light Snow
5:40 PM 19.0 °F 10.0 °F 16.0 °F 88% 29.72 in 2.0 mi ENE 6.9 mph - 0.00 in Snow Light Snow
5:54 PM 19.9 °F 12.1 °F 17.1 °F 89% 29.87 in 10.0 mi East 5.8 mph - 0.00 in   Overcast
6:54 PM 19.0 °F 9.0 °F 16.0 °F 88% 29.92 in 10.0 mi ENE 8.1 mph - N/A   Overcast
7:54 PM 21.0 °F 13.4 °F 18.0 °F 88% 29.94 in 10.0 mi ENE 5.8 mph - N/A   Overcast
8:54 PM 28.9 °F 25.2 °F 24.1 °F 82% 29.91 in 10.0 mi SSW 3.5 mph - N/A   Overcast
9:54 PM 25.0 °F 18.1 °F 21.0 °F 85% 29.94 in 10.0 mi WNW 5.8 mph - N/A   Partly Cloudy
10:54 PM 27.0 °F 19.5 °F 23.0 °F 85% 29.94 in 10.0 mi SW 6.9 mph - N/A   Clear
11:54 PM 26.1 °F 18.4 °F 21.9 °F 84% 29.94 in 10.0 mi West 6.9 mph - N/A   Clear